When you browse on this site, cookies collect data to enhance your experience and personalize the content and advertising you see.
Visit our Privacy Policy to learn more. By continuing to use the site, you agree to this use of cookies and data.
  • In Hungary
  • List of Countries
  • For 7 days
  • Water Temperature
  • Weather Map
  • News
  • Weather Widgets
  • user-avatar
    Login

    Hourly Weather Pervomaevka

    Today, 7 December, Saturday

    Time Temperature Precipitation Wind Pressure Humidity
    00:00 +4°C° 0 mm 1 mps 698 mmHg 86%
    01:00 +4°C° 0 mm 1 mps 698 mmHg 84%
    02:00 +3°C° 0 mm 1 mps 697 mmHg 83%
    03:00 +3°C° 0 mm 2 mps 697 mmHg 80%
    04:00 +3°C° 0 mm 2 mps 697 mmHg 77%
    05:00 +3°C° 0 mm 2 mps 697 mmHg 75%
    06:00 +3°C° 0 mm 2 mps 697 mmHg 72%
    07:00 +3°C° 0 mm 2 mps 697 mmHg 70%
    08:00 +3°C° 0 mm 2 mps 697 mmHg 68%
    09:00 +5°C° 0 mm 2 mps 697 mmHg 67%
    10:00 +7°C° 0 mm 1 mps 697 mmHg 66%
    11:00 +9°C° 0 mm 1 mps 697 mmHg 65%
    12:00 +9°C° 0 mm 1 mps 697 mmHg 66%
    13:00 +10°C° 0 mm 1 mps 696 mmHg 66%
    14:00 +10°C° 0 mm 1 mps 696 mmHg 67%
    15:00 +9°C° 0 mm 1 mps 696 mmHg 68%
    16:00 +7°C° 0 mm 2 mps 695 mmHg 70%
    17:00 +6°C° 0 mm 2 mps 695 mmHg 72%
    18:00 +6°C° 0 mm 2 mps 695 mmHg 69%
    19:00 +5°C° 0 mm 2 mps 695 mmHg 65%
    20:00 +5°C° 0 mm 2 mps 695 mmHg 62%
    21:00 +5°C° 0 mm 2 mps 695 mmHg 60%
    22:00 +5°C° 0 mm 2 mps 695 mmHg 59%
    23:00 +5°C° 0 mm 2 mps 695 mmHg 57%

    Tomorrow, 8 December, Sunday

    Time Temperature Precipitation Wind Pressure Humidity
    00:00 +5°C° 0 mm 2 mps 694 mmHg 56%
    01:00 +5°C° 0 mm 2 mps 694 mmHg 55%
    02:00 +5°C° 0 mm 2 mps 694 mmHg 54%
    03:00 +5°C° 0 mm 2 mps 693 mmHg 53%
    04:00 +5°C° 0 mm 2 mps 693 mmHg 52%
    05:00 +5°C° 0 mm 2 mps 693 mmHg 51%
    06:00 +5°C° 0 mm 2 mps 693 mmHg 51%
    07:00 +5°C° 0 mm 2 mps 693 mmHg 50%
    08:00 +5°C° 0 mm 2 mps 693 mmHg 49%
    09:00 +7°C° 0 mm 2 mps 693 mmHg 49%
    10:00 +9°C° 0 mm 2 mps 693 mmHg 48%
    11:00 +11°C° 0 mm 1 mps 693 mmHg 48%
    12:00 +12°C° 0 mm 1 mps 693 mmHg 48%
    13:00 +12°C° 0 mm 1 mps 692 mmHg 49%
    14:00 +12°C° 0 mm 1 mps 692 mmHg 49%
    15:00 +10°C° 0 mm 2 mps 691 mmHg 49%
    16:00 +9°C° 0 mm 2 mps 691 mmHg 50%
    17:00 +7°C° 0 mm 2 mps 690 mmHg 50%
    18:00 +7°C° 0 mm 2 mps 690 mmHg 48%
    19:00 +7°C° 0 mm 2 mps 690 mmHg 45%
    20:00 +7°C° 0 mm 2 mps 689 mmHg 43%
    21:00 +7°C° 0 mm 2 mps 689 mmHg 41%
    22:00 +7°C° 0 mm 2 mps 689 mmHg 40%
    23:00 +7°C° 0 mm 2 mps 688 mmHg 39%

    Day after tomorrow, 9 December, Monday

    Time Temperature Precipitation Wind Pressure Humidity
    00:00 +6°C° 0 mm 2 mps 688 mmHg 37%
    01:00 +6°C° 0 mm 2 mps 688 mmHg 36%
    02:00 +6°C° 0 mm 2 mps 687 mmHg 35%
    03:00 +6°C° 0 mm 2 mps 687 mmHg 34%
    04:00 +6°C° 0 mm 2 mps 687 mmHg 33%
    05:00 +6°C° 0 mm 2 mps 687 mmHg 32%
    06:00 +6°C° 0 mm 2 mps 687 mmHg 32%
    07:00 +6°C° 0 mm 2 mps 687 mmHg 32%
    08:00 +6°C° 0 mm 2 mps 687 mmHg 31%
    09:00 +9°C° 0 mm 1 mps 687 mmHg 34%
    10:00 +10°C° 0 mm 1 mps 687 mmHg 36%
    11:00 +12°C° 0 mm 1 mps 688 mmHg 38%
    12:00 +12°C° 0 mm 1 mps 688 mmHg 40%
    13:00 +13°C° 0 mm 1 mps 687 mmHg 41%
    14:00 +13°C° 0 mm 1 mps 687 mmHg 43%
    15:00 +12°C° 0 mm 1 mps 687 mmHg 41%
    16:00 +11°C° 0 mm 1 mps 687 mmHg 39%
    17:00 +10°C° 0 mm 1 mps 686 mmHg 38%
    18:00 +9°C° 0 mm 1 mps 687 mmHg 37%
    19:00 +8°C° 0 mm 2 mps 687 mmHg 36%
    20:00 +8°C° 0 mm 2 mps 688 mmHg 36%
    21:00 +8°C° 0 mm 2 mps 688 mmHg 36%
    22:00 +8°C° 0 mm 1 mps 688 mmHg 36%
    23:00 +8°C° 0 mm 1 mps 688 mmHg 37%

    10 December, Tuesday

    Time Temperature Precipitation Wind Pressure Humidity
    00:00 +7°C° 0 mm 2 mps 688 mmHg 36%
    01:00 +7°C° 0 mm 2 mps 688 mmHg 35%
    02:00 +7°C° 0 mm 3 mps 688 mmHg 35%
    03:00 +8°C° 0 mm 2 mps 688 mmHg 35%
    04:00 +8°C° 0 mm 2 mps 688 mmHg 36%
    05:00 +8°C° 0 mm 2 mps 688 mmHg 37%
    06:00 +8°C° 0 mm 2 mps 688 mmHg 38%
    07:00 +8°C° 0 mm 2 mps 688 mmHg 40%
    08:00 +8°C° 0 mm 2 mps 688 mmHg 41%
    09:00 +9°C° 0 mm 2 mps 688 mmHg 43%
    10:00 +10°C° 0 mm 2 mps 688 mmHg 45%
    11:00 +12°C° 0 mm 1 mps 689 mmHg 47%
    12:00 +12°C° 0 mm 1 mps 689 mmHg 49%
    13:00 +12°C° 0 mm 1 mps 688 mmHg 52%
    14:00 +12°C° 0 mm 1 mps 688 mmHg 54%
    15:00 +11°C° 0 mm 1 mps 688 mmHg 55%
    16:00 +11°C° 0 mm 1 mps 687 mmHg 56%
    17:00 +10°C° 0 mm 1 mps 687 mmHg 57%
    18:00 +9°C° 0 mm 1 mps 687 mmHg 57%
    19:00 +9°C° 0 mm 1 mps 687 mmHg 57%
    20:00 +9°C° 0 mm 1 mps 687 mmHg 57%
    21:00 +9°C° 0 mm 1 mps 687 mmHg 57%
    22:00 +9°C° 0 mm 1 mps 688 mmHg 57%
    23:00 +9°C° 0 mm 1 mps 688 mmHg 57%

    11 December, Wednesday

    Time Temperature Precipitation Wind Pressure Humidity
    00:00 +9°C° 0 mm 1 mps 688 mmHg 59%
    01:00 +8°C° 0 mm 1 mps 687 mmHg 60%
    02:00 +8°C° 0 mm 1 mps 687 mmHg 62%
    03:00 +8°C° 0 mm 1 mps 687 mmHg 62%
    04:00 +7°C° 0 mm 1 mps 687 mmHg 63%
    05:00 +7°C° 0 mm 1 mps 687 mmHg 64%
    06:00 +7°C° 0 mm 1 mps 687 mmHg 64%
    07:00 +7°C° 0 mm 1 mps 687 mmHg 63%
    08:00 +7°C° 0 mm 1 mps 687 mmHg 63%
    09:00 +8°C° 0 mm 1 mps 687 mmHg 62%
    10:00 +8°C° 0 mm 1 mps 688 mmHg 61%
    11:00 +9°C° 0 mm 1 mps 688 mmHg 60%
    12:00 +10°C° 0 mm 1 mps 687 mmHg 59%
    13:00 +10°C° 0 mm 1 mps 687 mmHg 58%
    14:00 +11°C° 0 mm 1 mps 686 mmHg 57%
    15:00 +10°C° 0 mm 1 mps 686 mmHg 59%
    16:00 +9°C° 0 mm 1 mps 686 mmHg 61%
    17:00 +8°C° 0 mm 1 mps 685 mmHg 62%
    18:00 +7°C° 0 mm 1 mps 685 mmHg 60%
    19:00 +7°C° 0 mm 1 mps 685 mmHg 58%
    20:00 +7°C° 0 mm 1 mps 685 mmHg 56%
    21:00 +7°C° 0 mm 1 mps 685 mmHg 55%
    22:00 +7°C° 0 mm 1 mps 684 mmHg 53%
    23:00 +6°C° 0 mm 1 mps 684 mmHg 52%

    12 December, Thursday

    Time Temperature Precipitation Wind Pressure Humidity
    00:00 +6°C° 0 mm 1 mps 684 mmHg 51%
    01:00 +6°C° 0 mm 1 mps 684 mmHg 50%
    02:00 +6°C° 0 mm 1 mps 683 mmHg 49%
    03:00 +6°C° 0 mm 1 mps 683 mmHg 50%
    04:00 +6°C° 0 mm 1 mps 683 mmHg 50%
    05:00 +6°C° 0 mm 1 mps 683 mmHg 51%
    06:00 +6°C° 0 mm 1 mps 683 mmHg 52%
    07:00 +6°C° 0 mm 1 mps 683 mmHg 53%
    08:00 +6°C° 0 mm 1 mps 684 mmHg 54%
    09:00 +7°C° 0 mm 1 mps 684 mmHg 53%
    10:00 +8°C° 0 mm 1 mps 685 mmHg 52%
    11:00 +9°C° 0 mm 1 mps 685 mmHg 51%
    12:00 +9°C° 0 mm 1 mps 685 mmHg 53%
    13:00 +8°C° 0 mm 2 mps 685 mmHg 56%
    14:00 +8°C° 0 mm 2 mps 685 mmHg 58%
    15:00 +7°C° 0 mm 2 mps 685 mmHg 65%
    16:00 +7°C° 0 mm 1 mps 685 mmHg 72%
    17:00 +6°C° 0 mm 1 mps 685 mmHg 78%
    18:00 +6°C° 0 mm 1 mps 685 mmHg 78%
    19:00 +6°C° 0 mm 1 mps 686 mmHg 78%
    20:00 +6°C° 0 mm 1 mps 686 mmHg 78%
    21:00 +5°C° 0 mm 1 mps 686 mmHg 78%
    22:00 +5°C° 0 mm 1 mps 686 mmHg 78%
    23:00 +5°C° 0 mm 1 mps 687 mmHg 78%
    Show more